Weather History for Chester, CT

Change the Weather History Date:

Sunday, February 10, 2013

  Actual Average (KHVN) Record (KHVN)
Temperature  
Mean Temperature 26 °F -  
Max Temperature 35 °F 37 °F 30 °F (2014)
Min Temperature 17 °F 24 °F 19 °F (2014)
Degree Days  
Heating Degree Days 39    
Moisture  
Dew Point 5 °F    
Average Humidity 42    
Maximum Humidity 74    
Minimum Humidity 17    
Precipitation  
Precipitation 0.00 in - - ()
Sea Level Pressure  
Sea Level Pressure 30.35 in    
Wind  
Wind Speed 6 mph (NW)    
Max Wind Speed 13 mph    
Max Gust Speed 18 mph    
Visibility 10 miles    
Events      
Averages and records for this station are not official NWS values.
T = Trace of Precipitation, MM = Missing Value Source: NWS Daily Summary

Daily Weather History Graph

Daily Weather History Graph

Search for Another Location

Airport:

Trip Planner

Search our weather history database for the weather conditions in past years. The results will help you decide how hot, cold, wet, or windy it might be!

Date:

Astronomy

Feb. 10, 2013 Rise Set
Actual Time 6:51 AM EST 5:17 PM EST
Civil Twilight 6:22 AM EST 5:46 PM EST
Nautical Twilight 5:49 AM EST 6:19 PM EST
Astronomical Twilight 5:17 AM EST 6:51 PM EST
Moon 6:38 AM EST (2/10) 6:06 PM EST (2/10)
Length of Visible Light 11h 24m
Length of Day
10h 26m
New Moon, 0% of the Moon is Illuminated
Feb 10
New Moon
Feb 17
First Quarter
Feb 25
Full
Mar 4
Last Quarter
Mar 11
New

Hourly Weather History & Observations

Time (EST) Temp. Windchill Dew Point Humidity Pressure Visibility Wind Dir Wind Speed Gust Speed Precip Events Conditions
12:15 AM 19.4 °F 10.4 °F -2.2 °F 39% 30.25 in 10.0 mi NNW 6.9 mph - N/A   Clear
12:35 AM 19.4 °F 8.6 °F -2.2 °F 39% 30.25 in 10.0 mi NNW 9.2 mph - N/A   Clear
12:55 AM 19.4 °F 11.5 °F -2.2 °F 39% 30.26 in 10.0 mi North 5.8 mph - N/A   Clear
1:15 AM 19.4 °F 11.5 °F -2.2 °F 39% 30.27 in 10.0 mi NW 5.8 mph - N/A   Clear
1:35 AM 17.6 °F 7.3 °F -2.2 °F 42% 30.27 in 10.0 mi NNW 8.1 mph - N/A   Clear
1:55 AM 17.6 °F 8.2 °F -2.2 °F 42% 30.28 in 10.0 mi NW 6.9 mph - N/A   Clear
2:15 AM 17.6 °F 8.2 °F -2.2 °F 42% 30.28 in 10.0 mi NW 6.9 mph - N/A   Clear
2:55 AM 17.6 °F 8.2 °F -2.2 °F 42% 30.29 in 10.0 mi NW 6.9 mph - N/A   Clear
3:35 AM 17.6 °F 6.4 °F -2.2 °F 42% 30.30 in 10.0 mi NW 9.2 mph - N/A   Clear
3:55 AM 17.6 °F 8.2 °F -4.0 °F 38% 30.30 in 10.0 mi NNW 6.9 mph - N/A   Clear
4:15 AM 17.6 °F 5.7 °F -4.0 °F 38% 30.30 in 10.0 mi NNW 10.4 mph 17.3 mph N/A   Clear
4:35 AM 17.6 °F 4.3 °F -4.0 °F 38% 30.31 in 10.0 mi NNW 12.7 mph 18.4 mph N/A   Clear
4:55 AM 17.6 °F 5.7 °F -4.0 °F 38% 30.31 in 10.0 mi NNW 10.4 mph - N/A   Clear
5:15 AM 17.6 °F 5.7 °F -4.0 °F 38% 30.32 in 10.0 mi NNW 10.4 mph - N/A   Clear
5:35 AM 17.6 °F 6.4 °F -4.0 °F 38% 30.33 in 10.0 mi NNW 9.2 mph - N/A   Clear
5:55 AM 17.6 °F 6.4 °F -4.0 °F 38% 30.33 in 10.0 mi North 9.2 mph - N/A   Clear
6:15 AM 17.6 °F 7.3 °F -4.0 °F 38% 30.35 in 10.0 mi NNW 8.1 mph - N/A   Clear
6:35 AM 17.6 °F 7.3 °F -4.0 °F 38% 30.36 in 10.0 mi NNW 8.1 mph - N/A   Clear
6:55 AM 17.6 °F 7.3 °F -4.0 °F 38% 30.37 in 10.0 mi North 8.1 mph - N/A   Clear
7:35 AM 19.4 °F 10.4 °F -4.0 °F 36% 30.39 in 10.0 mi North 6.9 mph - N/A   Clear
7:55 AM 21.2 °F 10.9 °F -4.0 °F 33% 30.38 in 5.0 mi North 9.2 mph - N/A   Haze
8:15 AM 21.2 °F 9.5 °F -4.0 °F 33% 30.39 in 10.0 mi North 11.5 mph - N/A   Clear
8:35 AM 23.0 °F 12.4 °F -4.0 °F 31% 30.39 in 10.0 mi North 10.4 mph - N/A   Clear
8:55 AM 23.0 °F 11.1 °F -2.2 °F 33% 30.40 in 10.0 mi North 12.7 mph 18.4 mph N/A   Clear
9:15 AM 23.0 °F 14.7 °F -0.4 °F 36% 30.40 in 10.0 mi NNW 6.9 mph - N/A   Clear
9:35 AM 26.6 °F 17.5 °F -2.2 °F 29% 30.41 in 10.0 mi NNW 9.2 mph - N/A   Clear
9:55 AM 26.6 °F 17.5 °F -2.2 °F 29% 30.42 in 10.0 mi North 9.2 mph 16.1 mph N/A   Clear
10:15 AM 28.4 °F 21.2 °F -0.4 °F 29% 30.42 in 10.0 mi NNW 6.9 mph - N/A   Clear
10:35 AM 28.4 °F 20.4 °F -2.2 °F 27% 30.42 in 10.0 mi North 8.1 mph - N/A   Clear
10:55 AM 30.2 °F 24.3 °F -2.2 °F 25% 30.41 in 9.0 mi North 5.8 mph - N/A   Clear
11:35 AM 32.0 °F 26.4 °F -2.2 °F 23% 30.40 in 10.0 mi WNW 5.8 mph - N/A   Clear
11:55 AM 32.0 °F 26.4 °F -4.0 °F 21% 30.39 in 10.0 mi NW 5.8 mph - N/A   Clear
12:35 PM 33.8 °F 30.8 °F -2.2 °F 22% 30.38 in 10.0 mi North 3.5 mph - N/A   Clear
12:55 PM 33.8 °F 30.8 °F -4.0 °F 20% 30.37 in 10.0 mi NW 3.5 mph - N/A   Clear
1:15 PM 33.8 °F 30.8 °F -2.2 °F 22% 30.37 in 10.0 mi North 3.5 mph - N/A   Clear
1:35 PM 33.8 °F 27.0 °F -4.0 °F 20% 30.36 in 10.0 mi North 8.1 mph - N/A   Clear
1:55 PM 35.6 °F 30.7 °F -5.8 °F 17% 30.36 in 10.0 mi NNW 5.8 mph - N/A   Clear
2:15 PM 35.6 °F 29.9 °F -4.0 °F 18% 30.37 in 10.0 mi North 6.9 mph - N/A   Clear
2:35 PM 35.6 °F 32.8 °F -4.0 °F 18% 30.38 in 10.0 mi NNW 3.5 mph - N/A   Clear
2:55 PM 35.6 °F - -5.8 °F 17% 30.37 in 10.0 mi Calm Calm - N/A   Clear
3:15 PM 33.8 °F 29.6 °F 12.2 °F 41% 30.36 in 10.0 mi SW 4.6 mph - N/A   Clear
3:35 PM 33.8 °F 30.8 °F 12.2 °F 41% 30.36 in 10.0 mi SW 3.5 mph - N/A   Clear
3:55 PM 32.0 °F 27.5 °F 12.2 °F 44% 30.36 in 10.0 mi WSW 4.6 mph - N/A   Clear
4:15 PM 32.0 °F 28.7 °F 14.0 °F 48% 30.36 in 10.0 mi SSW 3.5 mph - N/A   Clear
4:35 PM 32.0 °F 28.7 °F 14.0 °F 48% 30.36 in 10.0 mi SW 3.5 mph - N/A   Clear
4:55 PM 30.2 °F 25.4 °F 15.8 °F 55% 30.37 in 10.0 mi West 4.6 mph - N/A   Clear
5:15 PM 30.2 °F 26.7 °F 15.8 °F 55% 30.37 in 10.0 mi SW 3.5 mph - N/A   Clear
5:35 PM 30.2 °F - 14.0 °F 51% 30.37 in 10.0 mi Calm Calm - N/A   Clear
5:55 PM 30.2 °F - 14.0 °F 51% 30.37 in 10.0 mi Calm Calm - N/A   Clear
6:15 PM 28.4 °F 23.3 °F 14.0 °F 55% 30.37 in 10.0 mi West 4.6 mph - N/A   Clear
6:35 PM 30.2 °F 26.7 °F 14.0 °F 51% 30.37 in 10.0 mi West 3.5 mph - N/A   Clear
6:55 PM 28.4 °F 24.6 °F 12.2 °F 51% 30.38 in 10.0 mi WSW 3.5 mph - N/A   Clear
7:15 PM 28.4 °F 24.6 °F 12.2 °F 51% 30.37 in 10.0 mi WSW 3.5 mph - N/A   Clear
7:35 PM 28.4 °F 24.6 °F 12.2 °F 51% 30.37 in 10.0 mi SW 3.5 mph - N/A   Clear
7:55 PM 30.2 °F - 14.0 °F 51% 30.38 in 10.0 mi Calm Calm - N/A   Clear
8:15 PM 30.2 °F - 15.8 °F 55% 30.38 in 10.0 mi Calm Calm - N/A   Clear
8:35 PM 30.2 °F - 15.8 °F 55% 30.37 in 10.0 mi Calm Calm - N/A   Clear
8:55 PM 30.2 °F - 17.6 °F 60% 30.36 in 10.0 mi Calm Calm - N/A   Clear
9:15 PM 30.2 °F - 19.4 °F 64% 30.35 in 10.0 mi Calm Calm - N/A   Clear
9:35 PM 28.4 °F - 19.4 °F 69% 30.35 in 10.0 mi Calm Calm - N/A   Clear
9:55 PM 28.4 °F - 19.4 °F 69% 30.35 in 10.0 mi Calm Calm - N/A   Clear
10:15 PM 28.4 °F 22.2 °F 19.4 °F 69% 30.36 in 10.0 mi WSW 5.8 mph - N/A   Clear
10:35 PM 30.2 °F 25.4 °F 21.2 °F 69% 30.35 in 10.0 mi WSW 4.6 mph - N/A   Clear
10:55 PM 30.2 °F - 19.4 °F 64% 30.33 in 10.0 mi Calm Calm - N/A   Clear
11:15 PM 26.6 °F - 19.4 °F 74% 30.33 in 10.0 mi Calm Calm - N/A   Clear
11:35 PM 28.4 °F - 19.4 °F 69% 30.34 in 10.0 mi Calm Calm - N/A   Clear
11:55 PM 26.6 °F - 19.4 °F 74% 30.33 in 10.0 mi Calm Calm - N/A   Clear